FENGYUN 1C DEB

Satellite information

Favourite Embed

Satellite Type and Status

DEBRISIN ORBIT

Key statistics

Satellite FENGYUN 1C DEB at a glance.

Uptime

9496

Days in orbit

Revolutions

≈ 14.7

Per day

Orbit

SSO

Sun Synchronous Orbit

Inclination

98.7

Latest

Satellite identification and parameters

Extended collection of information and parameters for FENGYUN 1C DEB.

Object identification

Identified? True

Debris? True

Object name: FENGYUN 1C DEB

International designator: 1999-025CWT

Object number (NORAD): 32245

Object ID (CCSDS): 32245

Country: PEOPLES REPUBLIC OF CHINA (PRC)

Current information (Y/N): Y

RCS size: SMALL

Orbital parameters

Period: 97.791 minutes

Inclination: 98.6645 deg

SMA: 7031.162 km

Apoapsis: 726.285 km

Periapsis: 579.77 km

RAAN: 305.5675 deg

Eccentricy: 0.010419

Argument of periapsis: 321.0939 deg

Mean anomaly: 38.28 deg

Mean motion: 14.72522971 rev/day

Mean motion (dot): 0.00007845 rev/day2

B* drag term: 0.0011415 1/REarth

Two-line elements (TLE)

Creation date: May 6, 2025, 10:46 p.m.

Reference frame: TEME

Reference center: EARTH

Epoch: May 4, 2025, 6:33 p.m. UTC

TLE line 0: 0 FENGYUN 1C DEB

TLE line 1: 1 32245U 99025CWT 25124.77322606 .00007845 00000-0 11415-2 0 9996

TLE line 2: 2 32245 98.6645 305.5675 0104190 321.0939 38.2800 14.72522971941217

Live tracking on map

Real-time ground track for satellite FENGYUN 1C DEB.

In-orbit conjunctions

A list of the most updated potential collisions computed for object FENGYUN 1C DEB.

Target Orbit TCA Probability of collision Miss distance Type
ATLAS F BURNER 2 R/B SSO 2025-04-30 09:00:38 0.0002432628 483.0 (m) ROCKET BODY
SL-16 DEB LEO 2024-07-28 17:26:37 0.000102794 154.0 (m) DEBRIS

Associated space launch

Chinese polar orbiting meteorological satellite

FENGYUN 1C DEB was lifted into orbit during the mission ‘Long March 4B | Feng Yun 1C’, on board a Long March 4B space rocket.

The launch took place on May 10, 1999, 1:33 a.m. from Launch Complex 7.

For more information about the launch, click the button.

Launch to space Long March 4B | Feng Yun 1C
Long March 4B | Feng Yun 1C

Agency: N/A

Status: Launch Successful

Launch date: May 10, 1999, 1:33 a.m. UTC

Rocket: Long March 4B

Launch pad: Launch Complex 7

Location: Taiyuan Satellite Launch Center, People's Republic of China

...

Latest news about this satellite

There are no fresh news available about this satellite. Check back as we update our databases every day.


Newsletter sign-up

Weekly statistics, charts and insights to help you stay on top of the space industry.